Location: Arrodets-la-Barthe
(43.0306°N, 0.2829°E)
Time: 18:42:00
(UTC+00:00)

STRAND 1 - Pass Details

Date: 07 April 2023
Orbit: 767 x 779 km, 98.4° (Epoch: 04 June)

Event Time Altitude Azimuth Distance (km) Brightness Sun altitude
Rises 20:06:10 0° 359° (N) 3,248 ? -17.1°
Reaches altitude 10° 20:08:59 10° 344° (NNW) 2,316 ? -17.6°
Maximum altitude 20:12:41 21° 297° (WNW) 1,686 ? -18.2°
Drops below altitude 10° 20:16:23 10° 250° (WSW) 2,307 ? -18.7°
Sets 20:19:11 0° 235° (SW) 3,230 ? -19.2°
